Overview Statistics Trail Chart Weather Telemetry Raw packets
 

This is the latest recevied weather packets stored in our database for station/object IONIA-WX. If no packets are shown the sender has not sent any weather packets the latest 10 day(s).

<< 32 33 34 35 36 37 >>
Time Temp. Humidity Pressure Rain* Wind** Luminosity Snow
1787829317 15° C 93% 982.6 hPa 0 mm - - -
1787828418 15° C 93% 982.6 hPa 0 mm - - -
1787827518 15° C 92% 983.2 hPa 0 mm - - -
1787826617 15.56° C 92% 983.2 hPa 0 mm - - -
1787825717 15.56° C 92% 983.7 hPa 0 mm - - -
1787824818 16.11° C 92% 983.7 hPa 0 mm - - -
1787823916 16.11° C 92% 983 hPa 0 mm - - -
1787823017 16.11° C 92% 983 hPa 0 mm - - -
1787822120 16.11° C 92% 983 hPa 0 mm - - -
1787821218 16.67° C 92% 983 hPa 0 mm - - -
1787820317 16.67° C 90% 982.2 hPa 0 mm - - -
1787819419 16.67° C 90% 982.2 hPa 0 mm - - -
1787818516 16.67° C 92% 982.2 hPa 0 mm - - -
1787817622 16.67° C 92% 982.7 hPa 0 mm - - -
1787816719 16.67° C 92% 981.8 hPa 0 mm - - -
1787815818 16.67° C 93% 982.8 hPa 0 mm - - -
1787814916 16.67° C 93% 982.8 hPa 0 mm - - -
1787814020 16.67° C 93% 982.8 hPa 0 mm - - -
1787813116 17.22° C 92% 982.3 hPa 0 mm - - -
1787812217 17.22° C 92% 982.3 hPa 0 mm - - -
1787811317 17.22° C 92% 982.3 hPa 0 mm - - -
1787810418 17.78° C 92% 982.3 hPa 0 mm - - -
1787809517 17.78° C 88% 982.1 hPa 0 mm - - -
1787808619 17.78° C 88% 982.1 hPa 0 mm - - -
1787807718 17.78° C 88% 982.1 hPa 0 mm - - -

* Rain latest hour (hover to see other rain measurements)
** Current wind speed in m/s (hover to see current wind gust speed)